LNNPO ENNO-ENKJ

Flight info

Callsign LNNPO
Flight time 0h 36m
Altitude 2500
Route VFR ENNO/ENKJ
Aircraft C172/L-SFG/C

Departure

Time 2026-05-05 13:06
Airport Notodden Airport (ENNO)

Arrival

Time 2026-05-05 13:42
Airport Lillestrøm Airfield, Kjeller (ENKJ)
Time Latitude Longitude Altitude Speed Heading
2026-05-05 12:57 59.56397 9.21999 53 ft 0 kts 261°
2026-05-05 13:03 59.56397 9.21995 54 ft 1 kts 271°
2026-05-05 13:03 59.56412 9.21930 56 ft 9 kts 294°
2026-05-05 13:04 59.56399 9.21825 57 ft 7 kts 217°
2026-05-05 13:04 59.56354 9.21779 57 ft 7 kts 179°
2026-05-05 13:04 59.56312 9.21854 56 ft 11 kts 127°
2026-05-05 13:04 59.56252 9.21972 54 ft 4 kts 134°
2026-05-05 13:05 59.56262 9.21985 54 ft 7 kts 316°
2026-05-05 13:05 59.56299 9.21888 56 ft 23 kts 306°
2026-05-05 13:05 59.56489 9.21403 82 ft 57 kts 303°
2026-05-05 13:05 59.56728 9.20826 264 ft 55 kts 303°
2026-05-05 13:06 59.56967 9.20231 421 ft 55 kts 300°
2026-05-05 13:06 59.57185 9.19592 564 ft 56 kts 301°
2026-05-05 13:06 59.57374 9.18950 722 ft 55 kts 290°
2026-05-05 13:06 59.57606 9.18356 859 ft 58 kts 313°
2026-05-05 13:07 59.57962 9.17963 1005 ft 60 kts 324°
2026-05-05 13:07 59.58322 9.17550 1144 ft 62 kts 321°
2026-05-05 13:07 59.58680 9.17115 1307 ft 60 kts 314°
2026-05-05 13:07 59.59084 9.16804 1443 ft 65 kts 340°
2026-05-05 13:08 59.59544 9.16870 1580 ft 72 kts 10°
2026-05-05 13:08 59.59920 9.17569 1725 ft 80 kts 52°
2026-05-05 13:08 59.60083 9.18645 1880 ft 84 kts 73°
2026-05-05 13:08 59.60115 9.19855 1983 ft 95 kts 82°
2026-05-05 13:09 59.60111 9.21221 2044 ft 105 kts 89°
2026-05-05 13:09 59.60048 9.22719 2127 ft 110 kts 91°
2026-05-05 13:09 59.59994 9.24195 2251 ft 110 kts 91°
2026-05-05 13:09 59.59929 9.25729 2318 ft 113 kts 90°
2026-05-05 13:10 59.59873 9.27308 2374 ft 116 kts 89°
2026-05-05 13:10 59.59824 9.28871 2480 ft 116 kts 90°
2026-05-05 13:10 59.59780 9.30490 2484 ft 119 kts 89°
2026-05-05 13:10 59.59775 9.32159 2454 ft 124 kts 85°
2026-05-05 13:11 59.59779 9.33850 2422 ft 124 kts 86°
2026-05-05 13:11 59.59784 9.35562 2351 ft 126 kts 86°
2026-05-05 13:11 59.59832 9.37265 2334 ft 124 kts 80°
2026-05-05 13:11 59.59949 9.38955 2326 ft 123 kts 76°
2026-05-05 13:12 59.60130 9.40622 2292 ft 123 kts 72°
2026-05-05 13:12 59.60371 9.42226 2258 ft 125 kts 66°
2026-05-05 13:12 59.60687 9.43816 2229 ft 124 kts 60°
2026-05-05 13:12 59.61059 9.45362 2169 ft 125 kts 57°
2026-05-05 13:13 59.61525 9.46797 2121 ft 121 kts 43°
2026-05-05 13:13 59.62101 9.47979 2129 ft 118 kts 40°
2026-05-05 13:13 59.62611 9.49270 2113 ft 122 kts 54°
2026-05-05 13:13 59.62951 9.50826 2077 ft 125 kts 68°
2026-05-05 13:14 59.63187 9.52488 2045 ft 125 kts 70°
2026-05-05 13:14 59.63403 9.54144 2038 ft 121 kts 73°
2026-05-05 13:14 59.63583 9.55755 2004 ft 121 kts 73°
2026-05-05 13:14 59.63773 9.57371 1987 ft 118 kts 72°
2026-05-05 13:15 59.63957 9.58943 2003 ft 115 kts 73°
2026-05-05 13:15 59.64148 9.60484 1995 ft 117 kts 68°
2026-05-05 13:15 59.64389 9.62002 1968 ft 117 kts 63°
2026-05-05 13:15 59.64783 9.63446 1901 ft 117 kts 54°
2026-05-05 13:16 59.65143 9.64871 1872 ft 117 kts 62°
2026-05-05 13:16 59.65509 9.66341 1868 ft 117 kts 57°
2026-05-05 13:16 59.65902 9.67732 1870 ft 116 kts 56°
2026-05-05 13:16 59.66283 9.69168 1834 ft 119 kts 62°
2026-05-05 13:17 59.66552 9.70745 1791 ft 121 kts 70°
2026-05-05 13:17 59.66841 9.72299 1778 ft 120 kts 60°
2026-05-05 13:17 59.67247 9.73668 1788 ft 116 kts 49°
2026-05-05 13:17 59.67744 9.74951 1751 ft 116 kts 45°
2026-05-05 13:18 59.68241 9.76187 1762 ft 114 kts 45°
2026-05-05 13:18 59.68721 9.77445 1763 ft 114 kts 44°
2026-05-05 13:18 59.69240 9.78614 1772 ft 114 kts 40°
2026-05-05 13:18 59.69788 9.79738 1794 ft 114 kts 38°
2026-05-05 13:19 59.70346 9.80841 1827 ft 113 kts 42°
2026-05-05 13:19 59.70837 9.82108 1821 ft 118 kts 48°
2026-05-05 13:19 59.71323 9.83433 1815 ft 120 kts 50°
2026-05-05 13:19 59.71793 9.84757 1853 ft 117 kts 49°
2026-05-05 13:20 59.72290 9.86041 1864 ft 116 kts 46°
2026-05-05 13:20 59.72774 9.87328 1860 ft 116 kts 48°
2026-05-05 13:20 59.73206 9.88703 1837 ft 119 kts 58°
2026-05-05 13:20 59.73577 9.90173 1841 ft 120 kts 60°
2026-05-05 13:21 59.73922 9.91666 1823 ft 120 kts 60°
2026-05-05 13:21 59.74213 9.93222 1835 ft 119 kts 69°
2026-05-05 13:21 59.74432 9.94830 1799 ft 123 kts 73°
2026-05-05 13:21 59.74625 9.96466 1785 ft 122 kts 74°
2026-05-05 13:22 59.74800 9.98121 1745 ft 124 kts 75°
2026-05-05 13:22 59.74966 9.99793 1750 ft 121 kts 77°
2026-05-05 13:22 59.75099 10.01440 1746 ft 120 kts 77°
2026-05-05 13:22 59.75227 10.03077 1714 ft 123 kts 81°
2026-05-05 13:23 59.75248 10.04785 1675 ft 125 kts 91°
2026-05-05 13:23 59.75174 10.06484 1682 ft 122 kts 92°
2026-05-05 13:23 59.75082 10.08161 1672 ft 122 kts 94°
2026-05-05 13:23 59.75008 10.09826 1660 ft 122 kts 94°
2026-05-05 13:24 59.74940 10.11514 1655 ft 121 kts 91°
2026-05-05 13:24 59.74931 10.13160 1649 ft 120 kts 83°
2026-05-05 13:24 59.75044 10.14786 1661 ft 118 kts 76°
2026-05-05 13:24 59.75195 10.16391 1676 ft 117 kts 76°
2026-05-05 13:25 59.75343 10.17991 1681 ft 117 kts 73°
2026-05-05 13:25 59.75549 10.19553 1663 ft 118 kts 69°
2026-05-05 13:25 59.75832 10.21071 1676 ft 117 kts 66°
2026-05-05 13:25 59.76100 10.22583 1654 ft 116 kts 65°
2026-05-05 13:26 59.76358 10.24116 1645 ft 117 kts 67°
2026-05-05 13:26 59.76640 10.25626 1652 ft 117 kts 63°
2026-05-05 13:26 59.76911 10.27154 1637 ft 118 kts 70°
2026-05-05 13:26 59.77158 10.28700 1639 ft 117 kts 67°
2026-05-05 13:27 59.77408 10.30251 1665 ft 118 kts 67°
2026-05-05 13:27 59.77669 10.31766 1686 ft 116 kts 66°
2026-05-05 13:27 59.77930 10.33287 1687 ft 117 kts 69°
2026-05-05 13:27 59.78171 10.34789 1752 ft 114 kts 70°
2026-05-05 13:28 59.78413 10.36300 1785 ft 114 kts 68°
2026-05-05 13:28 59.78659 10.37809 1789 ft 115 kts 65°
2026-05-05 13:28 59.78956 10.39301 1815 ft 116 kts 63°
2026-05-05 13:28 59.79292 10.40758 1818 ft 117 kts 58°
2026-05-05 13:29 59.79630 10.42207 1847 ft 114 kts 59°
2026-05-05 13:29 59.80004 10.43597 1862 ft 112 kts 52°
2026-05-05 13:29 59.80418 10.44900 1841 ft 114 kts 51°
2026-05-05 13:29 59.80847 10.46269 1851 ft 115 kts 52°
2026-05-05 13:30 59.81250 10.47637 1862 ft 115 kts 53°
2026-05-05 13:30 59.81663 10.48996 1850 ft 114 kts 49°
2026-05-05 13:30 59.82114 10.50301 1858 ft 114 kts 51°
2026-05-05 13:30 59.82523 10.51675 1836 ft 116 kts 53°
2026-05-05 13:31 59.82904 10.53075 1820 ft 118 kts 56°
2026-05-05 13:31 59.83320 10.54486 1799 ft 118 kts 52°
2026-05-05 13:31 59.83746 10.55888 1790 ft 117 kts 53°
2026-05-05 13:31 59.84126 10.57316 1787 ft 118 kts 57°
2026-05-05 13:32 59.84510 10.58785 1759 ft 119 kts 56°
2026-05-05 13:32 59.84876 10.60237 1791 ft 116 kts 58°
2026-05-05 13:32 59.85216 10.61690 1782 ft 117 kts 58°
2026-05-05 13:32 59.85571 10.63173 1776 ft 116 kts 56°
2026-05-05 13:33 59.85958 10.64550 1789 ft 114 kts 50°
2026-05-05 13:33 59.86281 10.65578 1787 ft 115 kts 51°
2026-05-05 13:33 59.86510 10.66299 1794 ft 114 kts 51°
2026-05-05 13:34 59.86948 10.67636 1771 ft 116 kts 50°
2026-05-05 13:34 59.87400 10.68991 1753 ft 117 kts 50°
2026-05-05 13:34 59.87834 10.70348 1771 ft 115 kts 52°
2026-05-05 13:34 59.88265 10.71683 1773 ft 115 kts 52°
2026-05-05 13:35 59.88682 10.73048 1760 ft 116 kts 53°
2026-05-05 13:35 59.89100 10.74434 1742 ft 116 kts 51°
2026-05-05 13:35 59.89531 10.75802 1716 ft 119 kts 53°
2026-05-05 13:35 59.89896 10.77319 1681 ft 123 kts 65°
2026-05-05 13:36 59.90180 10.78915 1658 ft 122 kts 63°
2026-05-05 13:36 59.90487 10.80484 1667 ft 120 kts 65°
2026-05-05 13:36 59.90774 10.82030 1651 ft 121 kts 67°
2026-05-05 13:36 59.91023 10.83557 1702 ft 116 kts 73°
2026-05-05 13:37 59.91243 10.85061 1810 ft 107 kts 67°
2026-05-05 13:37 59.91500 10.86517 1761 ft 116 kts 64°
2026-05-05 13:37 59.91804 10.88026 1734 ft 118 kts 62°
2026-05-05 13:37 59.92170 10.89441 1801 ft 113 kts 53°
2026-05-05 13:38 59.92575 10.90768 1772 ft 116 kts 47°
2026-05-05 13:38 59.93036 10.92037 1809 ft 110 kts 47°
2026-05-05 13:38 59.93484 10.93322 1746 ft 118 kts 52°
2026-05-05 13:38 59.93941 10.94612 1662 ft 112 kts 47°
2026-05-05 13:39 59.94432 10.95927 1493 ft 121 kts 52°
2026-05-05 13:39 59.94908 10.97274 1458 ft 117 kts 50°
2026-05-05 13:39 59.95403 10.98563 1298 ft 118 kts 48°
2026-05-05 13:39 59.95875 10.99820 1187 ft 113 kts 56°
2026-05-05 13:40 59.96274 11.01156 1068 ft 110 kts 55°
2026-05-05 13:40 59.96648 11.02475 952 ft 107 kts 56°
2026-05-05 13:40 59.97009 11.03761 887 ft 105 kts 59°
2026-05-05 13:40 59.97377 11.05021 868 ft 104 kts 58°
2026-05-05 13:41 59.97400 11.06372 877 ft 102 kts 110°
2026-05-05 13:41 59.97042 11.07578 884 ft 99 kts 125°
2026-05-05 13:41 59.96519 11.08209 871 ft 89 kts 194°
2026-05-05 13:41 59.96085 11.07535 821 ft 76 kts 250°
2026-05-05 13:42 59.96115 11.06566 668 ft 70 kts 299°
2026-05-05 13:42 59.96352 11.05783 537 ft 65 kts 301°
2026-05-05 13:42 59.96590 11.05040 379 ft 61 kts 301°
2026-05-05 13:42 59.96735 11.04605 360 ft 8 kts 325°
2026-05-05 13:43 59.96733 11.04598 360 ft 7 kts 118°
2026-05-05 13:43 59.96732 11.04733 362 ft 11 kts 63°
2026-05-05 13:43 59.96745 11.04816 362 ft 1 kts 125°
2026-05-05 13:43 59.96730 11.04867 362 ft 2 kts 86°
2026-05-05 13:44 59.96737 11.04868 362 ft 1 kts 305°
2026-05-05 13:44 59.96742 11.04858 362 ft 0 kts 323°
2026-05-05 13:44 59.96743 11.04857 362 ft 0 kts 323°